Location: El Águila
(10.4167°N, 66.7167°W)
Time: 04:44:17
(UTC+00:00)

ASTEX 1 - Pass Details

Date: 02 October 2022
Orbit: 718 x 743 km, 92.7° (Epoch: 04 December)

Event Time Altitude Azimuth Distance (km) Brightness Sun altitude
Rises 22:28:31 0° 13° (NNE) 3,170 6.5 -3.7°
Reaches altitude 10° 22:30:50 10° 16° (NNE) 2,248 5.7 -4.3°
Maximum altitude 22:35:45 59° 96° (E) 852 3.5 -5.5°
Drops below altitude 10° 22:40:39 10° 175° (S) 2,248 5.9 -6.7°
Sets 22:42:58 0° 179° (S) 3,170 6.7 -7.3°
